[[{"header":{"parameterUnit":"m.s-1","parameterCategory":1,"la1":30.2991,"la2":30.254,"lo1":-89.0895,"lo2":-89.0444,"dy":0.0017,"dx":0.0017,"nx":28,"ny":28,"refTime":"2024-07-11T03:00:00:Z","depth":0,"parameterNumber":2,"parameterNumberName":"U-component_of_WINDS"},"data":[0,0,0,0,0,0,0,0,0,0,0,0,0,0,0,0,0,0,0,0,0,0,0,0,0,0,0,0,0,0,0,0,0,0,0,0,0,0,0,0,0,0,0,0,0,0,0,0,0,0,0,0,0,0,0,0,0,0,2.7773,2.7774,0,2.7874,2.7875,2.7876,2.7869,2.7867,2.7866,2.7864,2.7971,2.7975,2.798,0,0,0,0,0,0,0,0,0,0,0,0,0,2.7576,2.758,2.7773,2.7774,2.7775,2.7874,2.7875,2.7877,2.7869,2.7867,2.7865,2.7863,2.797,2.7975,2.798,0,0,0,0,0,0,0,0,0,0,0,0,0,2.7668,2.7581,2.7773,2.7783,2.7785,2.7874,2.7875,2.7877,2.7869,2.7867,2.7865,2.7863,2.7968,2.7974,2.7981,2.8066,0,0,2.8,2.8003,0,0,0,0,0,0,0,0,2.7663,2.7675,2.7781,2.7783,2.7785,2.7856,2.7845,2.7941,2.787,2.7838,2.7864,2.7861,2.7935,2.7944,2.7968,2.8071,2.8076,2.8001,2.8005,2.8007,2.8009,0,0,0,0,0,0,0,2.7656,2.7671,2.7813,2.7782,2.7785,2.7784,2.7795,2.7863,2.7898,2.784,2.784,2.7852,2.7936,2.7962,2.7971,2.8077,2.8001,2.8006,2.801,2.8013,2.8255,2.8257,0,0,0,0,0,0,2.7647,2.7666,2.781,2.7816,2.7717,2.7789,2.7801,2.7836,2.7897,2.7904,2.7854,2.7851,2.7952,2.7963,2.7974,2.8077,2.8007,2.8013,2.8017,2.8252,2.8255,2.8258,0,0,0,0,0,0,2.7643,2.766,2.7806,2.7741,2.7759,2.7795,2.7834,2.7839,2.7865,2.7907,2.7914,2.7874,2.7951,2.7965,2.8043,2.8081,2.8016,2.8022,2.8249,2.8253,2.8256,2.8284,0,0,0,0,0,0,2.7637,2.7659,2.7691,2.7741,2.7763,2.7872,2.7837,2.7843,2.7876,2.7873,2.7928,2.7935,2.795,2.8033,2.8049,2.8088,2.8027,2.8246,2.8251,2.8255,2.828,2.8288,2.8296,0,0,0,0,0,2.763,2.7695,2.7692,2.771,2.7803,2.7874,2.7886,2.7901,2.7879,2.7912,2.7939,2.7933,2.8074,2.8041,2.8059,2.8101,2.8243,2.8249,2.8255,2.8276,2.8287,2.8295,0,0,0,0,0,0,2.7649,2.7702,2.7699,2.7783,2.7824,2.7872,2.7914,2.7912,2.7961,2.7957,2.7975,2.7988,2.8065,2.8091,2.8053,2.8186,2.8156,2.8166,2.8166,2.8176,2.8184,2.8176,2.8033,0,0,0,0,0,2.7663,2.7715,2.7759,2.7828,2.7849,2.7878,2.7909,2.7917,2.7961,2.7979,2.8012,2.8055,2.8109,2.8145,2.8197,2.8284,2.8296,2.8322,2.833,2.8336,2.8344,2.8391,2.8402,2.8277,2.8277,2.8277,0,0,2.7692,2.7727,2.7759,2.7833,2.7865,2.7919,2.7893,2.7951,2.7991,2.7988,2.8062,2.8088,2.8138,2.822,2.8258,2.8244,2.8381,2.8343,2.8348,2.8352,2.8398,2.841,2.842,2.8281,2.828,2.8279,0,0,2.7772,2.7804,2.7865,2.7898,2.7947,2.7966,2.7981,2.803,2.8047,2.8121,2.812,2.8169,2.8262,2.8297,2.8327,2.8421,2.8417,2.8438,2.8478,2.8524,2.8534,2.8542,2.8574,2.8586,2.8445,2.8446,2.8446,0,2.7802,2.7882,2.7897,2.7955,2.7987,2.7986,2.8047,2.8079,2.8144,2.8167,2.815,2.8266,2.83,2.839,2.8412,2.8437,2.8454,2.8431,2.8531,2.854,2.8548,2.8579,2.8591,2.8448,2.8447,2.8447,2.8447,0,2.7916,2.7971,2.8015,2.8075,2.8112,2.8172,2.8197,2.8233,2.8239,2.8259,2.8336,2.8376,2.8436,2.8458,2.8465,2.8549,2.8539,2.8527,2.8496,2.8562,2.8591,2.8603,2.845,2.845,2.8449,2.8449,0,0,2.8009,2.8077,2.8092,2.8119,2.8174,2.8218,2.8278,2.8335,2.8365,2.8411,2.8461,2.854,2.8528,2.8563,2.8573,2.8614,2.8683,2.8596,2.8598,2.861,2.8778,2.8785,2.8799,2.8682,2.8684,2.8686,2.8773,0,2.8094,2.8198,2.8213,2.8306,2.8357,2.8357,2.8409,2.8449,2.847,2.8518,2.8542,2.8597,2.8578,2.8599,2.8639,2.8666,2.8717,2.8661,2.8729,2.8731,2.8714,2.8814,2.8822,2.8902,2.8785,2.8787,2.8788,0,2.8205,2.8251,2.8349,2.8395,2.8417,2.8464,2.8517,2.8563,2.8608,2.8621,2.8659,2.8664,2.8727,2.8695,2.8782,2.8743,2.8772,2.879,2.8794,2.8799,2.8762,2.8821,2.8928,2.894,2.8806,2.8805,2.8804,0,2.8262,2.8349,2.8418,2.8441,2.8498,2.853,2.8556,2.8598,2.8632,2.8679,2.8701,2.8756,2.8785,2.8828,2.8848,2.8823,2.8934,2.8904,2.8946,2.8945,2.8968,2.8966,2.9079,2.899,2.8989,2.8989,2.8989,0,2.8353,2.8412,2.8443,2.8486,2.8552,2.857,2.8635,2.866,2.8698,2.8745,2.875,2.8795,2.882,2.8869,2.8886,2.8954,2.8968,2.898,2.8984,2.8979,2.8977,2.8997,2.8991,2.8992,2.8992,2.8991,2.899,0,2.8426,2.845,2.8525,2.8572,2.8585,2.8632,2.8673,2.8714,2.8736,2.8796,2.8811,2.8845,2.8903,2.8928,2.9,2.9011,2.9089,2.9089,2.9073,2.9073,2.9113,2.9109,2.9243,2.9261,2.916,2.9161,2.9162,0,2.8482,2.8527,2.8579,2.861,2.8636,2.8688,2.8721,2.8741,2.8775,2.883,2.8865,2.8922,2.8969,2.9061,2.9093,2.9148,2.9148,2.9192,2.9156,2.915,2.9147,2.9143,2.9147,2.9197,2.9198,2.9199,2.92,0,2.8578,2.8587,2.8635,2.8686,2.8726,2.8768,2.8809,2.8835,2.8861,2.89,2.8958,2.8994,2.9067,2.9123,2.918,2.9207,2.9208,2.9211,2.9223,2.9218,2.9205,2.9211,2.9088,2.9207,2.9206,2.9206,2.9205,2.9205,2.8643,2.8683,2.8725,2.8778,2.8811,2.8849,2.8889,2.8915,2.8964,2.9023,2.9032,2.9094,2.9138,2.9214,2.9243,2.9293,2.9282,2.93,2.9305,2.9308,2.931,2.9199,2.9303,2.9303,2.9303,2.9303,2.9303,0,2.8738,2.8765,2.8813,2.887,2.8911,2.8908,2.8953,2.8988,2.9042,2.9082,2.9128,2.9194,2.925,2.9286,2.9341,2.9374,2.9375,2.9388,2.9384,2.939,2.9317,2.93,2.9385,2.9385,2.9385,2.9385,2.9385,2.9385,2.8792,2.8858,2.8872,2.8955,2.8982,2.9041,2.9067,2.9103,2.9135,2.9209,2.9254,2.9277,2.9315,2.9374,2.9424,2.9434,2.9453,2.9466,2.9474,2.9405,2.9396,2.9388,2.9371,2.947,2.9471,2.9544,2.9544,2.9545]},{"header":{"parameterUnit":"m.s-1","parameterCategory":1,"la1":30.2991,"la2":30.254,"lo1":-89.0895,"lo2":-89.0444,"dy":0.0017,"dx":0.0017,"nx":28,"ny":28,"refTime":"2024-07-11T03:00:00:Z","depth":0,"parameterNumber":3,"parameterNumberName":"V-component_of_WINDS"},"data":[0,0,0,0,0,0,0,0,0,0,0,0,0,0,0,0,0,0,0,0,0,0,0,0,0,0,0,0,0,0,0,0,0,0,0,0,0,0,0,0,0,0,0,0,0,0,0,0,0,0,0,0,0,0,0,0,0,0,2.5993,2.5994,0,2.6089,2.609,2.6091,2.6109,2.6109,2.6108,2.6107,2.6198,2.6201,2.6204,0,0,0,0,0,0,0,0,0,0,0,0,0,2.5819,2.5822,2.5993,2.5994,2.5996,2.6089,2.609,2.6091,2.611,2.6109,2.6108,2.6107,2.6197,2.6201,2.6205,0,0,0,0,0,0,0,0,0,0,0,0,0,2.5902,2.5823,2.5993,2.6016,2.6019,2.6088,2.609,2.6091,2.611,2.6109,2.6107,2.6106,2.6196,2.62,2.6205,2.6256,0,0,2.6219,2.6221,0,0,0,0,0,0,0,0,2.5897,2.5908,2.6011,2.6015,2.6018,2.6086,2.6062,2.6146,2.611,2.6075,2.6107,2.6106,2.6161,2.6169,2.6189,2.626,2.6264,2.622,2.6222,2.6224,2.6226,0,0,0,0,0,0,0,2.5891,2.5904,2.6031,2.6013,2.6017,2.6019,2.603,2.6078,2.6123,2.6078,2.608,2.6091,2.6163,2.6184,2.6191,2.6265,2.622,2.6224,2.6227,2.6228,2.638,2.6381,0,0,0,0,0,0,2.5883,2.5899,2.6028,2.6034,2.5954,2.6023,2.6035,2.6065,2.6123,2.613,2.6092,2.6092,2.6177,2.6186,2.6194,2.6256,2.6224,2.6229,2.6231,2.6379,2.638,2.6382,0,0,0,0,0,0,2.5879,2.5894,2.6024,2.5967,2.5984,2.6027,2.6061,2.6068,2.6089,2.6133,2.614,2.6106,2.6176,2.6188,2.624,2.626,2.6231,2.6235,2.6377,2.6379,2.6381,2.6381,0,0,0,0,0,0,2.5874,2.5892,2.5914,2.5968,2.5987,2.6071,2.6062,2.607,2.6098,2.6099,2.6148,2.6155,2.6176,2.6233,2.6245,2.6266,2.6239,2.6376,2.6378,2.638,2.638,2.6383,2.6386,0,0,0,0,0,2.5867,2.5909,2.5915,2.5931,2.6015,2.6072,2.6083,2.6108,2.61,2.6121,2.6148,2.6154,2.6256,2.6239,2.6252,2.6274,2.6375,2.6378,2.638,2.6378,2.6382,2.6386,0,0,0,0,0,0,2.5855,2.5917,2.5924,2.5985,2.6023,2.6075,2.6102,2.6111,2.6151,2.6149,2.6177,2.6188,2.6238,2.6261,2.6241,2.6325,2.6314,2.632,2.6308,2.6312,2.6315,2.6308,2.6243,0,0,0,0,0,2.586,2.5903,2.5954,2.6002,2.6022,2.6058,2.6084,2.61,2.614,2.6155,2.6187,2.6223,2.6263,2.6289,2.6329,2.6383,2.6393,2.6405,2.6408,2.641,2.6414,2.6443,2.6448,2.6391,2.6391,2.6391,0,0,2.587,2.5909,2.5934,2.6001,2.6033,2.6074,2.6072,2.6116,2.6147,2.6161,2.6214,2.6238,2.628,2.6333,2.6358,2.6354,2.6432,2.6413,2.6415,2.6418,2.6446,2.6451,2.6456,2.6393,2.6392,2.6392,0,0,2.5908,2.5943,2.5987,2.6019,2.6067,2.6091,2.6102,2.6152,2.6169,2.6222,2.6234,2.6268,2.6337,2.6367,2.639,2.6438,2.6444,2.645,2.6465,2.6493,2.6497,2.6501,2.6517,2.6523,2.6454,2.6454,2.6454,0,2.5914,2.598,2.6008,2.6052,2.608,2.6097,2.614,2.6168,2.6226,2.6244,2.6239,2.6325,2.6354,2.6414,2.6425,2.6445,2.6455,2.6444,2.6495,2.6499,2.6503,2.6519,2.6525,2.6454,2.6454,2.6454,2.6454,0,2.5983,2.6028,2.6057,2.6114,2.6145,2.6188,2.6221,2.6248,2.6261,2.6285,2.6337,2.6373,2.6419,2.6434,2.6447,2.6495,2.6491,2.649,2.648,2.6509,2.6523,2.653,2.6455,2.6455,2.6455,2.6455,0,0,2.6017,2.6089,2.61,2.6125,2.6179,2.6213,2.6255,2.6303,2.6325,2.6363,2.6398,2.6455,2.6455,2.6482,2.6497,2.6521,2.6555,2.6517,2.6519,2.6522,2.6608,2.6608,2.6615,2.6559,2.6561,2.6562,2.6604,0,2.6062,2.6141,2.6167,2.6232,2.6273,2.6289,2.6325,2.636,2.6383,2.6419,2.6442,2.6483,2.6479,2.6495,2.652,2.6546,2.6572,2.6543,2.659,2.6591,2.6578,2.6623,2.6623,2.6662,2.661,2.6612,2.6612,0,2.6125,2.6166,2.6236,2.6283,2.6301,2.6334,2.6379,2.6413,2.6452,2.6467,2.6497,2.651,2.6552,2.6539,2.6596,2.6576,2.6596,2.6611,2.6613,2.6618,2.6603,2.6628,2.6675,2.6681,2.6622,2.6621,2.662,0,2.6141,2.6214,2.6265,2.6287,2.6344,2.6366,2.639,2.6429,2.6455,2.6493,2.651,2.6551,2.6573,2.6604,2.6626,2.6616,2.6681,2.667,2.6692,2.6691,2.6705,2.6704,2.6755,2.6719,2.6719,2.6719,2.6718,0,2.6188,2.623,2.6274,2.6305,2.6351,2.6378,2.6422,2.6447,2.6481,2.6515,2.653,2.6561,2.659,2.6624,2.6642,2.6685,2.6695,2.6706,2.6711,2.6705,2.6703,2.6718,2.6716,2.672,2.672,2.6719,2.6719,0,2.6215,2.6246,2.6302,2.6352,2.6365,2.6397,2.6438,2.6467,2.649,2.6533,2.6544,2.6579,2.662,2.6646,2.6698,2.6709,2.6757,2.676,2.6744,2.6746,2.6766,2.6763,2.6828,2.6838,2.6795,2.6796,2.6796,0,2.6242,2.6275,2.6328,2.6353,2.6378,2.6418,2.6445,2.6473,2.65,2.6546,2.6569,2.6612,2.6647,2.6711,2.6739,2.6778,2.6782,2.6802,2.6788,2.6781,2.6781,2.6779,2.6781,2.6804,2.6805,2.6805,2.6805,0,2.6287,2.6301,2.6341,2.6386,2.6418,2.6455,2.649,2.6509,2.6542,2.6571,2.6614,2.6642,2.6695,2.6736,2.6777,2.6799,2.6807,2.681,2.6816,2.6811,2.68,2.6805,2.675,2.6808,2.6808,2.6807,2.6807,2.6807,2.6315,2.6344,2.6386,2.6429,2.6459,2.6492,2.6522,2.6549,2.6586,2.6633,2.6646,2.6691,2.6727,2.6783,2.6806,2.6839,2.6836,2.6846,2.6849,2.6851,2.6851,2.6795,2.6847,2.6847,2.6846,2.6846,2.6846,0,2.6359,2.6387,2.6427,2.6478,2.6511,2.6518,2.6557,2.6584,2.6624,2.6658,2.6693,2.6741,2.678,2.6812,2.6851,2.6872,2.6876,2.6881,2.688,2.6884,2.6851,2.6841,2.6877,2.6877,2.6877,2.6877,2.6877,2.6877,2.6387,2.6436,2.6455,2.6518,2.6545,2.659,2.6612,2.6641,2.6669,2.6723,2.6757,2.6778,2.681,2.6852,2.6888,2.6896,2.6909,2.6913,2.6921,2.689,2.6887,2.6883,2.6874,2.6916,2.6916,2.6951,2.6952,2.6952]}]]